Regional Weather Roundup
Issued by NWS

Home | Current Version | Previous Version | Text Only | Print | Product List | Glossary On
Versions: 1 2 3 4 5 6 7 8 9 10 11 12 13 14 15 16 17 18 19 20 21 22 23 24 25 26 27 28 29 30 31 32 33 34 35 36 37 38 39 40 41 42 43 44 45 46 47 48 49 50
000
ASUS43 KLOT 280410
RWRIL

ILLINOIS REGIONAL WEATHER ROUNDUP
NATIONAL WEATHER SERVICE CHICAGO/ROMEOVILLE IL
1000 PM CST TUE JAN 27 2015

NOTE: "FAIR" INDICATES FEW OR NO CLOUDS BELOW 12,000 FEET WITH NO
SIGNIFICANT WEATHER AND/OR OBSTRUCTIONS TO VISIBILITY.

* THESE STATIONS ARE NOT UNDER NWS QUALITY CONTROL. THEY ALSO MAY NOT
  REPORT WEATHER SUCH AS PRECIPITATION OR FOG.

ILZ001-002-007-009-015-016-024-280500-
NORTHWEST ILLINOIS

CITY           SKY/WX    TMP DP  RH WIND       PRES   REMARKS
MOLINE         CLOUDY    27  22  81 SE8       30.23S WCI  19
STERLING*      CLOUDY    28  21  74 CALM      30.24S
SAVANNA*       CLOUDY    28  25  86 CALM      30.25R FOG
$$

ILZ003-004-008-010-011-017-018-280500-
NORTH CENTRAL ILLINOIS

CITY           SKY/WX    TMP DP  RH WIND       PRES   REMARKS
ROCKFORD       CLOUDY    24  19  81 SE9       30.26S WCI  14
FREEPORT*      CLOUDY    27  24  87 S3        30.25S
ROCHELLE*      PTCLDY    17  15  93 E6        30.26R WCI   8
DE KALB*       PTCLDY    19  15  84 SE3       30.24F
PERU*          PTCLDY    25  23  93 CALM      30.26S
$$

ILZ005-006-012>014-019>023-280500-
NORTHEAST ILLINOIS

CITY           SKY/WX    TMP DP  RH WIND       PRES   REMARKS
CHICAGO-OHARE  PTCLDY    22  17  81 CALM      30.25R
CHICAGO-MIDWAY PTCLDY    28  18  66 CALM      30.26R
AURORA         PTCLDY    20  13  74 CALM      30.26R
LANSING*       CLEAR     19  17  92 CALM      30.26R
JOLIET*        CLEAR     18  16  93 CALM      30.27R
WAUKEGAN       CLOUDY    22  18  85 CALM      30.25R
DUPAGE AIRPORT PTCLDY    17  13  84 CALM      30.24R
KANKAKEE*      CLEAR     20  17  88 CALM      30.27R
WHEELING       MOCLDY    21  16  81 CALM      30.27R
MORRIS*        PTCLDY    22  19  86 CALM      30.26R
ROMEOVILLE*    CLEAR     21  16  82 CALM      30.26R
NORTHERLY ISL    N/A     27  18  69 NE6         N/A  WCI  21
$$

LMZ740>746-280500-
SOUTHERN LAKE MICHIGAN

STATION/POSITION SKY/WX   TEMP    WIND        PRES    VSBY  WAVE
                          AIR SEA DIR/SP/G                  HT/PER
                          (F)     (DEG/KT/KT) (MB)    (MI)  (FT/S)
WAUKEGAN HARBOR            27      60/  4/  7   N/A
HARRISON CRIB              27      50/  6/  8   N/A
BURNHAM HARBOR             26      10/  3/  8   N/A
CALUMET HARBOR             27      30/  7/  8   N/A
MICHIGAN CITY              24     100/  6/  7   N/A
$$

ILZ025>027-034>036-040-047-049-050-058-095>099-280500-
WEST-CENTRAL ILLINOIS

CITY           SKY/WX    TMP DP  RH WIND       PRES   REMARKS
QUINCY         CLEAR     28  25  88 E8        30.21F FOG     WCI  20
GALESBURG*     CLOUDY    27  25  89 E5        30.23F WCI  22
MACOMB*        CLOUDY    29  27  91 SE8       30.26R WCI  21
JACKSONVILLE*  CLOUDY    32  28  85 E6        30.24R WCI  27
PITTSFIELD*    PTCLDY    29  27  92 E5        30.23F FOG     WCI  24
$$

ILZ028>032-037-038-041>044-048-051>054-059>061-280500-
CENTRAL ILLINOIS

CITY           SKY/WX    TMP DP  RH WIND       PRES   REMARKS
PONTIAC        CLOUDY    27  25  91 NE5       30.26R WCI  22
BLOOMINGTON    CLOUDY    30  26  85 E3        30.25R
DECATUR        PTCLDY    26  23  88 E5        30.26R WCI  20
PEORIA         CLOUDY    31  24  75 E5        30.26R WCI  26
LACON*         CLOUDY    29  24  81 CALM      30.26R
LINCOLN*       CLOUDY    32  25  76 S5        30.27R WCI  27
SPRINGFIELD    CLOUDY    30  25  81 SE5       30.25R WCI  25
TAYLORVILLE    PTCLDY    30  25  80 E6        30.25S WCI  24
$$

ILZ033-039-045-046-055>057-062-063-280500-
EAST-CENTRAL ILLINOIS

CITY           SKY/WX    TMP DP  RH WIND       PRES   REMARKS
CHAMPAIGN      CLEAR     23  19  85 CALM      30.25R
DANVILLE*      CLEAR     20  18  91 CALM      30.23R
RANTOUL*       CLEAR     24  22  93 CALM      30.26R
MATTOON        CLEAR     25  20  81 CALM      30.24R
PARIS*         CLEAR     21  19  93 CALM      30.26R
$$

ILZ079-100>102-280500-
SOUTHWEST ILLINOIS

CITY           SKY/WX    TMP DP  RH WIND       PRES   REMARKS
ALTON          CLEAR     29  28  92 CALM      30.25R
BELLEVILLE     CLEAR     27  26  99 NE1       30.25R
CAHOKIA*       CLEAR     29  25  85 CALM      30.26R
SPARTA*        CLEAR     29  27  90 CALM      30.26S
$$

ILZ064>066-069>071-074>076-080>082-084>086-088>090-092>094-280500-
SOUTH-CENTRAL ILLINOIS

CITY           SKY/WX    TMP DP  RH WIND       PRES   REMARKS
CARBONDALE     CLEAR     31  25  78 CALM      30.25S
CAIRO*         CLEAR     36  30  79 E5        30.25S WCI  32
EFFINGHAM*     CLEAR     29  22  76 CALM      30.27R
MARION         CLEAR     30  27  86 E3        30.26S
MT. VERNON     CLEAR     27  21  80 NE7       30.25S WCI  19
CENTRALIA*     CLEAR     29  25  86 E5        30.25R WCI  24
SALEM*         CLEAR     31  28  85 E5        30.25S FOG     WCI  27
METROPOLIS*    CLEAR     33  30  87 NE3       30.25R
$$

ILZ067-068-072-073-078-083-087-091-280500-
SOUTHEAST ILLINOIS

CITY           SKY/WX    TMP DP  RH WIND       PRES   REMARKS
LAWRENCEVILLE  PTCLDY    30  24  78 NE6       30.27R WCI  24
FLORA*         CLEAR     28  26  92 CALM      30.27R
FAIRFIELD*     CLEAR     29  27  90 N3        30.26R
HARRISBURG*    CLEAR     31  29  91 NE5       30.27S WCI  27
ROBINSON*      CLEAR     27  25  93 CALM      30.27R
CARMI*         CLOUDY    33  32  95 N3        30.26R
$$

ABBREVIATIONS USED IN REMARKS
   TC - TEMPERATURE IN CELSIUS
  WCI - WIND CHILL INDEX
   HX - HEAT INDEX
  VSB - VISIBILITY
$$




USA.gov is the U.S. government's official web portal to all federal, state and local government web resources and services.